GFSGBSN_prec_cthk_021.txt.gz
RH
36 34 33 32 31 31 29 28 27 27 26 26 26 26 26 26 25 25 25 23 21 20 18 16 12 10 8 6 7 9 10 9 8 7 9 19 30 37 36 42 47 55 53 50 46 40 39
26 25 24 22 20 20 21 21 21 20 19 19 19 19 19 21 23 25 25 24 23 22 21 18 16 13 11 8 6 8 9 10 9 13 11 15 24 33 36 34 39 46 43 42 45 42 39
20 19 17 15 14 14 14 15 15 16 17 17 17 16 17 17 18 18 22 25 25 24 22 21 18 16 13 9 6 7 8 9 9 8 11 9 12 25 29 31 34 37 37 35 43 44 41
14 14 14 14 13 12 12 11 11 11 12 13 13 14 14 15 16 16 19 22 25 25 24 22 20 17 15 13 8 7 8 8 9 11 8 8 10 17 25 25 28 32 31 31 41 42 42
13 13 12 11 10 10 9 9 9 9 9 9 9 10 11 11 12 14 18 20 24 27 26 23 21 18 17 14 11 7 8 8 9 12 12 9 11 13 17 22 24 27 28 32 40 40 38
12 11 11 10 10 9 9 8 8 8 7 7 7 8 8 8 9 10 14 17 21 25 29 28 26 22 17 15 10 8 8 10 11 12 15 13 14 14 14 17 19 22 27 32 39 38 33
13 12 11 10 10 10 10 10 9 9 8 7 7 7 7 6 7 8 11 14 17 22 25 29 28 24 19 16 17 10 8 11 12 13 14 15 14 14 12 12 17 22 28 33 40 38 35
14 14 14 14 14 13 13 11 11 10 9 9 8 8 8 6 6 8 10 13 17 19 20 20 23 23 22 19 20 16 10 10 12 13 15 16 14 12 12 12 14 18 25 29 38 35 33
15 15 15 15 15 15 14 14 13 11 10 9 10 9 9 7 7 7 8 13 15 16 20 16 18 23 24 22 21 20 16 12 12 13 13 12 12 13 13 12 11 13 17 26 32 35 32
16 16 16 15 14 13 13 12 13 13 12 12 11 11 11 9 9 7 10 13 12 16 18 13 15 19 22 24 21 20 20 16 14 14 13 13 13 13 12 13 10 10 13 22 31 35 35
15 15 14 13 13 13 12 12 11 11 11 11 11 12 12 12 11 12 13 12 13 19 14 16 15 17 18 22 22 22 20 21 15 13 15 13 14 14 15 11 11 9 11 17 26 32 34
14 14 13 13 13 13 12 12 12 12 12 11 9 10 11 14 13 13 12 11 20 20 19 17 16 16 19 18 20 22 23 22 20 17 14 13 14 15 12 12 12 12 13 16 23 29 29
14 13 12 12 12 13 13 13 13 13 13 12 10 10 12 15 14 14 12 12 21 23 16 20 20 20 20 19 18 21 23 22 22 19 18 16 15 13 13 14 13 13 13 17 19 22 22
12 11 11 12 12 13 13 13 13 14 15 13 10 11 14 16 15 12 14 13 23 19 22 24 25 23 21 22 20 21 23 24 25 21 19 19 20 15 13 14 13 13 13 13 17 15 18
11 11 12 13 13 14 16 17 17 17 18 17 13 12 17 18 16 15 18 16 23 31 33 30 26 28 28 26 24 23 22 24 26 25 22 20 18 16 14 14 14 15 15 10 12 15 15
12 13 14 15 17 19 21 22 22 22 23 23 20 17 22 20 20 21 22 26 35 43 39 33 32 33 34 32 30 27 26 31 29 31 28 24 24 18 18 17 16 14 13 15 14 15 15
14 15 17 19 22 23 24 27 28 28 28 28 29 29 31 28 29 31 33 36 35 42 44 43 40 39 39 38 36 33 36 34 33 34 32 28 24 22 21 19 18 17 17 14 14 12 11
16 19 22 26 27 27 29 30 32 33 33 34 40 42 42 39 39 42 41 41 38 39 48 47 46 46 42 43 40 40 41 40 36 37 37 34 27 24 22 21 19 18 16 16 16 18 12
19 22 26 29 29 33 36 35 35 37 40 41 49 57 56 54 59 58 54 50 46 49 55 56 54 54 50 47 46 48 47 45 41 40 40 36 34 32 26 23 22 22 20 19 16 15 17
21 26 29 31 32 38 45 47 45 45 46 48 54 61 66 67 70 67 64 58 56 57 63 74 71 56 54 54 49 53 54 51 45 44 42 39 37 33 28 26 27 25 22 21 18 19 16
22 27 32 34 40 45 50 55 58 56 53 57 60 65 75 77 78 75 72 67 67 68 64 74 88 84 69 54 50 51 56 56 52 48 45 44 42 39 36 35 31 28 25 23 22 20 19
24 29 37 38 43 54 60 63 71 68 64 67 70 73 74 78 84 84 78 77 77 78 75 69 94 93 88 85 60 58 57 59 59 53 48 47 46 46 40 35 32 31 28 26 24 21 20
25 29 37 41 48 63 73 74 78 80 77 79 78 79 82 81 78 88 84 81 81 80 80 81 90 95 88 86 77 70 57 54 56 59 56 50 48 48 42 39 36 33 27 26 26 25 21
31 34 36 43 47 58 79 90 85 85 85 87 87 88 90 80 81 80 81 85 84 85 86 80 78 83 83 82 76 60 54 46 43 48 54 56 53 47 44 42 41 27 27 28 27 24 21
32 33 32 32 39 52 70 88 97 95 90 89 88 89 94 88 80 75 77 81 82 82 82 82 78 81 80 78 71 68 59 51 40 34 44 50 55 47 44 42 34 31 29 36 37 26 29
32 30 29 30 33 43 70 83 95 98 98 93 90 82 89 92 86 86 82 81 77 78 82 84 81 79 80 80 76 70 55 50 42 42 33 43 53 55 48 38 38 32 33 38 39 33 37
28 29 30 31 32 40 64 76 90 98 98 98 95 88 82 89 85 90 88 85 83 82 85 81 80 75 79 78 70 68 63 55 45 39 49 48 53 52 49 48 40 34 40 49 47 35 41
24 26 29 31 31 34 51 72 87 97 98 98 98 96 85 83 81 86 89 84 83 81 80 75 74 73 76 77 72 69 74 65 55 39 39 44 49 56 49 48 45 33 37 43 51 47 42
22 24 27 28 29 33 46 71 86 98 98 98 98 98 95 88 79 77 75 75 74 74 73 73 68 67 72 77 77 81 78 72 71 61 49 48 41 56 42 37 34 36 40 46 47 45 46

GFSGBSN_prec_cthk_024.txt.gz
RH
19 17 16 15 15 15 15 15 16 16 17 17 17 16 16 17 17 17 19 21 23 24 22 20 18 15 12 10 7 7 9 9 8 10 12 19 31 38 36 38 46 57 56 51 47 44 42
15 14 14 13 12 12 11 11 11 12 12 13 13 14 14 14 14 16 17 17 21 25 25 22 21 19 16 13 8 7 8 8 11 13 14 16 22 32 37 38 42 49 54 52 42 38 40
12 11 11 11 10 10 10 10 10 9 9 9 10 10 11 11 12 13 14 17 19 22 25 26 23 21 21 15 9 7 10 12 14 15 14 15 18 28 31 36 33 42 45 44 41 38 37
12 10 10 9 9 9 8 8 8 7 7 7 7 7 8 8 9 10 11 14 17 20 24 26 26 23 22 18 14 9 11 16 20 18 18 22 21 25 26 27 27 32 32 34 37 41 39
13 12 11 10 9 9 8 8 8 8 7 7 7 6 6 6 6 7 9 11 14 18 21 26 27 28 23 19 17 12 12 13 18 18 21 22 23 20 24 25 26 27 29 31 34 39 43
12 11 11 12 12 12 12 11 10 10 9 8 7 7 7 6 5 5 6 9 12 15 20 26 32 29 23 19 18 14 13 13 18 21 18 17 17 12 16 21 22 24 26 28 31 36 40
12 12 12 13 13 12 11 11 10 10 10 10 9 8 7 7 7 7 6 10 15 20 17 21 28 26 25 21 20 15 13 15 20 21 14 13 12 10 10 12 16 21 24 26 28 36 40
12 12 12 11 12 12 11 10 9 9 9 10 10 9 9 8 7 7 8 12 14 15 14 11 13 20 28 25 23 17 14 15 14 16 14 14 12 10 11 10 13 16 19 23 29 34 38
12 11 10 11 11 10 10 10 10 9 9 9 9 9 8 9 9 10 12 14 17 16 16 10 11 13 19 26 23 22 15 16 15 15 13 12 12 11 11 13 12 12 16 21 27 35 36
14 13 11 11 11 12 12 11 10 9 9 9 10 9 8 6 13 12 18 15 15 17 17 10 11 13 14 21 24 23 17 17 16 16 14 14 14 13 12 12 11 11 11 19 24 31 34
12 11 11 11 11 11 11 11 11 10 10 9 9 9 8 8 10 16 16 15 16 22 14 15 14 14 15 17 20 22 24 17 15 16 17 15 14 14 13 10 12 10 10 13 20 25 31
11 11 11 11 12 12 13 12 12 11 11 10 10 8 7 12 14 17 14 14 18 22 16 16 15 16 17 18 19 22 24 21 20 19 18 17 15 14 13 13 12 11 10 11 14 22 26
11 12 12 13 14 14 13 12 12 12 12 12 12 9 10 10 13 13 12 17 19 17 16 22 20 19 18 18 22 22 24 24 25 21 18 19 17 16 15 15 13 13 15 14 14 15 17
12 12 13 13 14 14 14 15 15 15 16 16 15 13 14 15 15 13 14 20 21 20 28 29 27 23 22 21 19 22 25 25 26 23 21 21 19 15 14 14 14 14 14 11 15 12 13
12 13 14 15 16 17 18 18 19 20 21 20 19 20 23 22 18 18 22 21 19 44 46 36 28 27 25 26 24 22 23 25 25 25 24 22 21 17 15 14 14 15 13 9 12 14 14
12 14 15 17 18 21 22 24 26 26 26 24 23 26 28 24 24 27 31 33 44 48 46 37 35 37 39 35 30 25 24 27 27 28 30 26 25 21 18 15 14 15 12 14 12 16 16
12 15 18 20 21 24 26 31 33 33 32 28 32 33 32 29 35 41 45 46 38 39 41 44 49 46 48 44 38 33 33 32 32 33 34 30 26 25 21 16 17 16 17 14 12 10 12
13 15 17 22 22 26 32 38 41 42 40 40 39 37 36 36 48 49 49 45 41 48 52 46 48 46 49 52 46 45 46 41 36 37 35 33 31 31 23 21 18 17 16 15 13 15 11
15 16 18 23 25 26 32 43 50 51 48 48 49 46 47 46 52 59 59 57 52 54 54 57 59 54 55 55 57 54 53 46 40 40 40 38 31 33 31 27 23 20 18 17 15 13 15
18 19 22 24 27 32 35 47 58 63 60 62 63 56 55 58 60 64 66 65 62 65 59 56 77 67 54 49 59 61 57 50 46 43 40 41 34 31 28 26 26 24 20 19 18 16 14
22 24 27 30 32 35 41 57 68 74 74 75 75 66 68 63 63 66 72 69 69 67 64 60 85 90 78 55 60 61 64 57 51 47 42 41 39 38 36 35 30 26 23 21 20 19 17
24 27 28 26 26 30 38 58 74 85 85 89 84 74 74 72 71 67 70 74 68 72 72 71 75 90 91 82 69 84 72 65 60 54 50 44 46 42 38 36 33 30 27 24 22 21 20
25 26 25 25 26 29 34 50 71 87 94 95 93 84 78 76 75 70 69 68 73 69 73 79 74 79 82 87 79 69 64 69 62 60 53 50 47 44 40 35 35 34 28 27 25 23 22
23 24 25 24 28 30 33 41 61 87 98 98 97 96 80 75 78 79 70 66 72 76 78 74 73 74 80 79 77 63 51 55 58 55 54 53 51 46 42 43 43 29 30 30 28 25 23
22 23 24 25 29 30 32 39 59 84 98 98 98 98 88 80 74 78 83 75 70 68 68 72 74 75 73 75 74 67 52 48 44 51 50 50 53 47 47 42 35 34 33 32 32 28 26
20 21 23 24 28 28 30 38 60 85 98 98 98 98 98 90 79 81 83 80 73 70 69 74 75 75 74 73 73 70 56 54 43 44 44 55 54 52 44 44 40 35 34 40 40 37 36
19 18 20 23 25 27 30 45 65 88 98 98 98 98 98 96 86 84 85 78 78 76 74 72 73 73 75 85 77 68 61 56 52 47 53 45 58 55 51 45 38 38 45 52 45 57 51
19 18 17 20 23 26 31 51 69 90 98 98 98 98 98 97 90 88 87 81 74 74 72 67 68 72 75 82 71 62 63 69 54 48 51 51 47 46 47 47 45 37 37 44 62 61 55
19 16 17 22 24 26 29 48 70 87 97 99 98 98 98 96 91 83 80 79 77 72 70 70 62 62 63 74 77 75 70 70 70 59 52 48 49 49 48 40 39 42 39 44 45 52 52

GFSGBSN_prec_cthk_030.txt.gz
RH
10 9 9 8 8 7 7 7 6 6 6 6 7 7 7 8 9 10 10 11 11 12 14 16 20 21 20 19 12 11 8 7 7 7 6 13 32 40 40 50 55 56 61 63 59 45 44
9 10 9 9 9 9 9 9 8 8 7 7 7 6 6 6 6 6 8 9 10 11 12 15 18 22 23 20 16 13 10 8 7 8 8 9 21 37 44 46 47 53 54 60 64 60 47
9 8 9 8 8 8 8 7 8 8 8 8 7 7 7 7 6 6 5 5 7 9 11 13 17 22 25 23 19 13 14 10 9 8 9 8 16 27 42 40 43 51 53 52 54 51 46
9 8 8 8 7 7 7 7 7 7 7 7 7 7 6 6 5 6 6 6 5 6 9 10 14 20 22 25 21 17 12 14 11 10 10 11 17 22 32 42 42 42 44 49 50 50 43
10 10 9 9 9 9 9 8 7 7 6 6 6 5 5 5 5 5 5 6 8 9 10 9 13 20 20 22 23 23 17 13 14 15 14 16 18 19 28 38 42 37 38 38 48 45 41
10 9 9 9 9 9 8 9 8 8 7 7 6 6 5 5 5 6 6 8 10 11 18 15 18 20 15 20 24 24 22 17 17 20 19 22 24 21 24 29 34 36 35 33 40 47 40
10 9 9 9 9 9 9 8 8 7 7 7 6 6 6 6 6 8 10 11 11 18 16 23 23 14 16 18 21 23 24 20 20 26 26 25 28 20 17 23 27 35 32 28 35 35 41
11 11 10 10 10 10 9 9 9 8 7 7 7 6 6 5 7 9 14 16 14 13 13 11 10 14 14 17 18 21 24 22 22 26 28 30 23 21 23 24 25 28 30 31 29 31 32
11 11 11 11 10 10 10 9 9 9 8 8 8 7 7 6 7 11 15 15 11 13 15 10 8 8 8 13 14 16 21 23 23 26 29 25 20 23 25 25 21 26 28 26 30 28 32
11 11 11 11 10 11 11 11 10 10 11 10 9 9 8 8 11 14 14 10 10 12 14 7 8 8 9 9 11 15 16 22 27 26 29 27 24 21 24 22 21 20 22 23 32 29 27
12 12 12 12 12 12 12 12 11 11 12 13 13 12 11 14 14 18 12 11 10 13 20 15 13 14 11 9 10 12 17 19 27 24 28 26 22 19 18 18 16 13 15 19 23 29 28
11 11 12 12 12 13 13 13 13 14 14 15 16 15 16 19 23 20 15 12 14 22 19 27 28 24 19 14 13 18 18 16 24 27 26 27 28 20 16 14 12 12 13 14 14 23 27
12 12 12 12 12 13 13 14 15 16 18 17 18 18 23 23 24 18 16 18 22 29 17 34 38 32 27 24 16 18 24 22 17 26 27 28 29 26 17 18 14 14 14 17 18 16 19
13 13 12 13 13 13 14 15 18 20 21 21 19 23 28 30 27 21 23 27 33 31 51 44 42 39 32 31 29 21 28 28 17 21 27 25 24 23 17 16 15 15 14 15 20 17 16
14 15 15 15 16 17 18 18 20 21 24 23 21 31 39 40 28 29 34 36 54 59 62 54 50 48 53 54 42 40 24 27 22 18 24 26 23 21 20 18 18 18 14 13 14 15 15
17 16 17 17 18 16 16 18 20 23 25 27 31 41 47 42 29 36 46 42 50 58 51 53 54 54 64 62 56 56 37 31 29 22 24 25 30 22 21 21 18 18 17 16 15 19 18
19 18 18 19 15 14 15 17 20 23 25 29 45 51 50 50 40 50 49 46 47 52 51 58 55 54 63 80 74 68 55 42 43 39 28 26 28 26 26 23 20 19 21 19 15 13 17
19 19 19 19 16 15 16 17 19 22 27 39 57 60 56 49 48 47 50 46 55 53 53 55 51 52 72 79 82 85 83 78 59 48 41 29 25 30 31 26 24 20 18 20 17 18 16
20 20 20 20 18 17 17 18 21 23 29 52 66 64 64 58 55 51 49 46 47 61 61 51 50 58 64 72 84 90 91 88 68 55 57 50 32 32 37 31 27 22 20 20 21 16 17
19 18 20 20 21 20 20 20 23 26 38 64 79 73 72 64 64 61 57 51 57 66 66 64 51 56 57 73 76 89 87 85 72 64 52 50 40 38 35 30 28 28 26 23 22 18 18
17 18 19 20 21 21 22 23 26 27 44 68 88 83 84 75 68 61 60 68 81 69 66 59 58 69 60 66 73 74 78 79 83 68 56 53 47 42 38 34 32 26 24 23 19 20 19
17 18 19 20 20 20 21 23 26 27 42 71 92 95 90 84 76 69 66 73 71 61 58 52 58 63 57 60 76 80 82 80 91 71 64 55 49 49 47 39 41 35 27 23 23 20 23
17 18 20 21 21 20 20 22 25 28 41 66 89 97 97 84 79 76 73 68 62 64 63 59 66 57 49 64 73 69 67 67 75 74 66 62 62 59 49 48 45 42 33 28 24 23 23
20 20 21 21 20 20 18 22 25 28 40 61 87 97 97 90 84 79 79 79 69 66 60 56 54 69 55 55 55 54 54 58 66 67 65 65 61 59 52 54 57 43 37 34 28 25 23
19 21 24 25 24 24 22 25 26 30 42 63 89 98 97 93 89 83 78 81 80 65 66 64 69 67 55 54 58 54 56 52 55 60 60 60 59 58 56 58 51 48 42 36 36 31 26
30 34 37 39 40 39 31 28 27 32 50 75 91 98 98 97 90 90 90 81 90 80 62 59 66 59 60 55 60 60 64 64 45 43 54 56 60 58 58 58 56 49 43 39 38 37 43
33 33 36 39 41 40 35 29 31 44 70 84 93 98 98 98 93 93 93 92 88 89 77 56 65 63 78 83 60 62 62 63 53 48 44 54 59 58 58 56 55 57 47 44 44 63 56
29 31 33 34 35 33 28 32 46 68 78 87 92 99 98 98 97 95 96 95 91 84 82 63 66 83 90 93 80 85 85 68 59 61 59 50 55 59 57 57 67 60 57 59 72 67 58
31 30 29 29 33 32 37 47 67 74 84 88 93 96 97 99 97 97 98 98 95 90 86 80 63 59 74 86 86 79 77 68 74 67 59 61 62 58 56 54 59 61 62 67 62 67 65

GFSGBSN_prec_cthk_033.txt.gz
RH
8 8 8 8 8 8 8 8 8 8 7 7 7 7 6 6 6 6 6 7 7 9 10 11 12 15 17 19 17 14 11 8 7 7 5 8 25 32 35 49 55 57 61 64 51 57 55
9 8 8 7 6 6 6 6 6 5 5 5 5 5 5 5 5 5 5 6 6 5 7 10 11 14 17 22 18 16 13 9 7 7 6 5 16 33 37 46 50 53 58 59 60 55 64
8 8 7 7 7 7 7 7 7 7 6 5 5 5 5 5 4 4 5 5 6 7 7 7 10 12 18 18 19 19 15 13 9 7 7 5 9 27 38 47 50 53 61 58 64 62 56
8 8 8 8 8 8 7 7 6 6 6 6 6 6 6 5 5 5 5 6 7 8 9 10 9 10 15 13 17 20 19 17 13 10 8 8 7 18 34 40 49 52 52 58 53 54 52
8 8 7 7 7 8 8 7 7 7 7 6 6 6 6 5 5 6 7 8 8 7 9 13 13 16 12 12 17 20 20 20 16 13 11 9 11 15 25 36 42 46 50 46 47 49 53
9 9 9 9 9 9 9 9 8 8 8 7 7 7 6 6 5 7 9 10 7 12 12 14 19 19 9 8 14 21 21 20 18 15 16 12 14 16 20 28 35 38 44 40 41 42 51
10 9 10 10 10 10 11 10 10 9 9 9 8 7 6 6 6 8 10 11 8 10 9 9 8 18 14 17 16 18 24 24 20 21 20 16 19 17 15 20 27 36 39 34 34 38 50
10 11 11 11 11 11 11 10 10 9 9 9 9 9 8 7 7 10 13 12 9 10 9 6 6 7 8 18 17 16 19 25 22 23 23 23 21 16 18 18 22 31 37 36 35 32 45
11 11 11 12 12 12 11 11 10 10 10 9 9 10 9 9 9 12 13 10 9 9 10 8 9 8 7 10 16 16 17 20 21 25 25 24 18 20 23 20 21 24 30 31 33 30 35
11 11 11 11 11 11 11 10 10 11 11 11 10 11 10 10 11 12 13 10 10 11 15 18 14 14 14 8 11 16 17 18 22 23 28 29 25 27 25 25 22 24 23 28 29 36 37
12 12 11 11 10 10 11 11 12 12 12 12 13 11 10 14 15 16 14 13 13 17 19 14 25 26 21 14 9 8 19 18 19 23 30 28 28 28 28 22 24 24 22 24 27 34 36
13 13 13 13 12 13 13 13 11 12 12 13 13 14 13 18 19 16 18 18 18 22 22 17 29 32 25 23 17 15 17 20 20 23 26 31 35 32 27 24 27 26 28 26 25 31 34
15 14 14 14 16 15 12 11 11 12 14 14 14 16 18 23 20 20 24 25 26 28 22 19 34 34 38 37 32 29 22 31 23 24 25 33 31 36 28 28 24 27 27 25 23 27 25
18 16 16 17 17 14 10 9 10 12 13 15 15 20 24 29 28 26 31 35 41 32 34 25 28 41 51 53 48 41 33 25 30 21 28 33 32 32 34 24 22 19 16 18 22 20 20
19 18 19 19 18 13 10 10 11 11 12 15 19 26 30 37 35 32 35 40 41 40 35 31 28 40 53 61 64 59 51 38 28 27 26 33 28 31 32 28 22 20 16 14 17 18 20
22 21 21 21 18 15 13 12 12 13 14 18 28 36 37 43 43 39 43 45 44 44 48 43 46 53 56 66 75 73 68 54 54 58 47 29 39 32 33 38 24 21 21 17 16 22 22
22 23 23 22 18 17 16 16 14 16 16 21 38 49 48 51 44 45 47 49 43 44 45 48 56 60 55 76 77 79 79 75 77 69 60 41 33 27 35 34 27 21 24 20 16 20 24
23 23 23 18 18 19 20 18 17 18 17 21 42 56 57 56 54 48 45 42 42 45 45 52 60 55 64 65 73 75 87 93 91 83 65 55 46 34 31 29 27 25 21 21 19 18 17
24 24 22 17 18 20 21 20 18 19 20 22 40 61 69 65 59 53 46 41 46 51 62 57 61 54 55 71 77 83 83 82 90 86 74 72 51 40 33 33 32 28 23 21 22 20 18
24 25 20 18 19 20 22 21 19 20 22 24 40 57 71 68 66 61 53 49 51 61 57 61 49 57 58 59 75 80 84 80 85 87 84 73 53 50 40 30 29 30 28 24 24 22 16
29 25 18 19 20 21 23 22 20 21 23 29 41 57 86 83 75 70 64 60 65 59 70 61 53 53 61 62 69 79 77 76 75 84 81 71 52 47 40 34 33 35 30 28 23 23 19
33 20 19 20 21 23 22 22 22 23 24 32 46 66 88 93 82 75 73 74 73 58 54 54 59 57 57 66 72 75 73 73 79 82 82 69 61 53 45 37 38 40 31 28 23 21 22
20 18 20 24 29 30 32 31 28 28 33 40 59 81 96 95 88 82 79 82 81 74 64 60 57 49 54 60 71 65 60 64 69 73 79 73 65 59 49 44 46 49 41 31 27 23 21
20 28 33 35 36 40 44 45 38 35 38 57 74 92 97 96 96 90 84 80 91 86 73 60 58 70 66 68 60 47 50 55 60 66 75 77 67 61 59 53 60 43 42 39 29 26 23
31 33 32 33 35 38 40 41 39 39 53 75 87 97 98 97 97 92 89 88 87 85 81 62 69 73 68 57 56 50 55 57 59 60 67 70 64 64 68 64 49 47 49 45 33 43 41
30 30 32 33 32 34 39 38 38 57 76 85 90 97 97 99 96 97 97 93 91 94 82 67 68 60 59 67 67 64 79 74 75 59 65 64 62 64 70 71 64 62 54 46 44 59 49
30 31 30 28 32 36 38 41 58 73 83 90 95 97 96 98 98 99 98 97 97 94 89 71 65 79 86 88 73 75 79 74 74 81 66 64 66 65 67 70 79 68 59 51 56 77 59
32 29 27 28 35 40 47 55 68 77 84 89 94 96 98 98 97 99 98 98 98 97 94 80 69 71 85 92 97 98 96 82 79 80 81 65 69 68 66 71 90 75 68 69 72 68 63
29 27 27 29 38 45 54 65 72 77 82 88 93 97 98 98 97 98 98 98 98 95 95 89 79 73 74 81 80 79 84 84 75 93 78 84 84 87 77 83 75 83 77 69 68 69 64